Wilmington, DE

9:08 PM EST on November 11, 2019 (GMT -0500)
New Castle County

Weather History for KILG - August, 2019

Change the Weather History Date:

Sunday, August 25, 2019

  Actual Average Record
Temperature  
Mean Temperature 69 °F 74 °F  
Max Temperature 79 °F 83 °F 96 °F (1968)
Min Temperature 58 °F 65 °F 48 °F (1942)
Degree Days  
Heating Degree Days 0 0  
Month to date heating degree days 0 0  
Since 1 June heating degree days 5 15  
Since 1 July heating degree days 0 0  
Cooling Degree Days 4 9  
Month to date cooling degree days 322 264  
Year to date cooling degree days 1184 941  
Since 1 June cooling degree days 1052 862  
Growing Degree Days 18 (Base 50)    
Moisture  
Dew Point 58 °F    
Average Humidity 69    
Maximum Humidity 90    
Minimum Humidity 48    
Precipitation  
Precipitation 0.00 in 0.10 in 2.33 in (1957)
Month to date precipitation 2.66 2.68  
Year to date precipitation 36.12 28.19  
Snow  
Snow 0.00 in 0.00 in 0.00 in (1894)
Month to date snowfall 0.0 0.0  
Since 1 June snowfall 0.0 0.0  
Since 1 July snowfall 0.0 0.0  
Snow Depth 0.00 in    
Sea Level Pressure  
Sea Level Pressure 30.22 in    
Wind  
Wind Speed 10 mph (NE)    
Max Wind Speed 21 mph    
Max Gust Speed 27 mph    
Visibility 10 miles    
Events      
T = Trace of Precipitation, MM = Missing Value Source: NWS Daily Summary

Daily Weather History Graph

Daily Weather History Graph

Search for Another Location

Airport or City:

Astronomy

Aug. 25, 2019 Rise Set
Actual Time 6:23 AM EDT 7:44 PM EDT
Civil Twilight 5:55 AM EDT 8:12 PM EDT
Nautical Twilight 5:21 AM EDT 8:46 PM EDT
Astronomical Twilight 4:46 AM EDT 9:21 PM EDT
Moon 12:57 AM EDT (8/25) 4:02 PM EDT (8/25)
Length of Visible Light 14h 16m
Length of Day
13h 20m
Waning Crescent, 29% of the Moon is Illuminated
Aug 25
Waning Crescent
Aug 30
New
Sep 5
First Quarter
Sep 14
Full
Sep 21
Last Quarter

Hourly Weather History & Observations

Time (EDT) Temp. Dew Point Humidity Pressure Visibility Wind Dir Wind Speed Gust Speed Precip Events Conditions
12:51 AM 63.0 °F 59.0 °F 87% 30.23 in 10.0 mi NNE 4.6 mph - N/A   Mostly Cloudy
1:51 AM 62.1 °F 57.9 °F 86% 30.22 in 10.0 mi NNW 3.5 mph - N/A   Mostly Cloudy
2:51 AM 60.1 °F 57.9 °F 93% 30.21 in 10.0 mi NNW 5.8 mph - N/A   Partly Cloudy
3:51 AM 60.1 °F 57.0 °F 90% 30.22 in 10.0 mi North 5.8 mph - N/A   Clear
4:51 AM 59.0 °F 55.0 °F 87% 30.21 in 10.0 mi North 4.6 mph - N/A   Partly Cloudy
5:51 AM 60.1 °F 55.0 °F 83% 30.21 in 10.0 mi North 8.1 mph - N/A   Partly Cloudy
6:51 AM 61.0 °F 57.0 °F 87% 30.22 in 10.0 mi North 6.9 mph - N/A   Mostly Cloudy
7:51 AM 66.0 °F 59.0 °F 78% 30.24 in 10.0 mi NNE 9.2 mph - N/A   Scattered Clouds
8:51 AM 68.0 °F 59.0 °F 73% 30.25 in 10.0 mi NNE 15.0 mph - N/A   Clear
9:20 AM 70.0 °F 59.0 °F 68% 30.25 in 10.0 mi NNE 11.5 mph - N/A   Mostly Cloudy
9:39 AM 71.1 °F 59.0 °F 66% 30.24 in 10.0 mi NE 16.1 mph - N/A   Scattered Clouds
9:51 AM 70.0 °F 59.0 °F 68% 30.25 in 10.0 mi NNE 12.7 mph 20.7 mph N/A   Scattered Clouds
10:18 AM 70.0 °F 59.0 °F 68% 30.25 in 10.0 mi NE 12.7 mph 21.9 mph N/A   Mostly Cloudy
10:26 AM 71.1 °F 59.0 °F 66% 30.25 in 10.0 mi ENE 13.8 mph 20.7 mph N/A   Mostly Cloudy
10:36 AM 72.0 °F 60.1 °F 66% 30.25 in 10.0 mi NNE 13.8 mph 19.6 mph N/A   Overcast
10:49 AM 71.6 °F 59.0 °F 64% 30.25 in 10.0 mi NE 13.8 mph 20.7 mph N/A   Mostly Cloudy
10:51 AM 71.1 °F 59.0 °F 66% 30.25 in 10.0 mi NE 12.7 mph 20.7 mph N/A   Mostly Cloudy
11:51 AM 73.0 °F 57.9 °F 59% 30.25 in 10.0 mi NE 16.1 mph 23.0 mph N/A   Mostly Cloudy
12:51 PM 75.9 °F 57.9 °F 54% 30.23 in 10.0 mi NE 19.6 mph 26.5 mph N/A   Scattered Clouds
1:51 PM 75.9 °F 57.9 °F 54% 30.21 in 10.0 mi NE 13.8 mph - N/A   Mostly Cloudy
2:51 PM 78.1 °F 57.9 °F 50% 30.20 in 10.0 mi NE 13.8 mph 24.2 mph N/A   Partly Cloudy
3:51 PM 78.1 °F 57.0 °F 48% 30.19 in 10.0 mi ENE 12.7 mph - N/A   Mostly Cloudy
4:51 PM 75.0 °F 57.0 °F 53% 30.19 in 10.0 mi ENE 8.1 mph - N/A   Overcast
5:51 PM 73.9 °F 55.0 °F 52% 30.19 in 10.0 mi East 10.4 mph - N/A   Mostly Cloudy
6:51 PM 75.0 °F 55.0 °F 50% 30.19 in 10.0 mi East 12.7 mph - N/A   Mostly Cloudy
7:51 PM 71.1 °F 57.9 °F 63% 30.20 in 10.0 mi ESE 10.4 mph - N/A   Partly Cloudy
8:51 PM 69.1 °F 57.9 °F 68% 30.21 in 10.0 mi East 9.2 mph - N/A   Clear
9:51 PM 68.0 °F 57.9 °F 70% 30.21 in 10.0 mi East 10.4 mph - N/A   Clear
10:51 PM 66.9 °F 57.9 °F 73% 30.22 in 10.0 mi ENE 10.4 mph - N/A   Clear
11:51 PM 66.0 °F 57.9 °F 75% 30.21 in 10.0 mi NE 9.2 mph - N/A   Clear